Year,Month,Day,Hour,Minute,Value (Times are PST for temperature in C)
2013,08,22,00,00,13.20
2013,08,22,00,01,13.20
2013,08,22,00,02,13.20
2013,08,22,00,03,13.20
2013,08,22,00,04,13.20
2013,08,22,00,05,13.20
2013,08,22,00,06,13.20
2013,08,22,00,07,13.10
2013,08,22,00,08,13.10
2013,08,22,00,09,13.10
2013,08,22,00,10,13.10
2013,08,22,00,11,13.00
2013,08,22,00,12,13.00
2013,08,22,00,13,13.00
2013,08,22,00,14,13.00
2013,08,22,00,15,13.00
2013,08,22,00,16,12.90
2013,08,22,00,17,12.90
2013,08,22,00,18,12.90
2013,08,22,00,19,12.90
2013,08,22,00,20,12.90
2013,08,22,00,21,12.90
2013,08,22,00,22,12.90
2013,08,22,00,23,12.80
2013,08,22,00,24,12.80
2013,08,22,00,25,12.80
2013,08,22,00,26,12.80
2013,08,22,00,27,12.80
2013,08,22,00,28,12.80
2013,08,22,00,29,12.70
2013,08,22,00,30,12.70
2013,08,22,00,31,12.70
2013,08,22,00,32,12.70
2013,08,22,00,33,12.70
2013,08,22,00,34,12.70
2013,08,22,00,35,12.70
2013,08,22,00,36,12.70
2013,08,22,00,37,12.70
2013,08,22,00,38,12.60
2013,08,22,00,39,12.60
2013,08,22,00,40,12.60
2013,08,22,00,41,12.60
2013,08,22,00,42,12.60
2013,08,22,00,43,12.50
2013,08,22,00,44,12.50
2013,08,22,00,45,12.50
2013,08,22,00,46,12.50
2013,08,22,00,47,12.50
2013,08,22,00,48,12.40
2013,08,22,00,49,12.40
2013,08,22,00,50,12.40
2013,08,22,00,51,12.40
2013,08,22,00,52,12.30
2013,08,22,00,53,12.30
2013,08,22,00,54,12.30
2013,08,22,00,55,12.30
2013,08,22,00,56,12.30
2013,08,22,00,57,12.20
2013,08,22,00,58,12.20
2013,08,22,00,59,12.20
2013,08,22,01,00,12.20
2013,08,22,01,01,12.20
2013,08,22,01,02,12.20
2013,08,22,01,03,12.20
2013,08,22,01,04,12.10
2013,08,22,01,05,12.10
2013,08,22,01,06,12.10
2013,08,22,01,07,12.10
2013,08,22,01,08,12.10
2013,08,22,01,09,12.00
2013,08,22,01,10,12.00
2013,08,22,01,11,12.00
2013,08,22,01,12,12.00
2013,08,22,01,13,11.90
2013,08,22,01,14,11.90
2013,08,22,01,15,11.90
2013,08,22,01,16,11.90
2013,08,22,01,17,11.80
2013,08,22,01,18,11.80
2013,08,22,01,19,11.80
2013,08,22,01,20,11.80
2013,08,22,01,21,11.80
2013,08,22,01,22,11.80
2013,08,22,01,23,11.70
2013,08,22,01,24,11.70
2013,08,22,01,25,11.70
2013,08,22,01,26,11.70
2013,08,22,01,27,11.60
2013,08,22,01,28,11.60
2013,08,22,01,29,11.60
2013,08,22,01,30,11.60
2013,08,22,01,31,11.60
2013,08,22,01,32,11.60
2013,08,22,01,33,11.50
2013,08,22,01,34,11.50
2013,08,22,01,35,11.50
2013,08,22,01,36,11.50
2013,08,22,01,37,11.40
2013,08,22,01,38,11.40
2013,08,22,01,39,11.40
2013,08,22,01,40,11.40
2013,08,22,01,41,11.40
2013,08,22,01,42,11.40
2013,08,22,01,43,11.40
2013,08,22,01,44,11.40
2013,08,22,01,45,11.30
2013,08,22,01,46,11.30
2013,08,22,01,47,11.30
2013,08,22,01,48,11.30
2013,08,22,01,49,11.30
2013,08,22,01,50,11.30
2013,08,22,01,51,11.30
2013,08,22,01,52,11.30
2013,08,22,01,53,11.30
2013,08,22,01,54,11.30
2013,08,22,01,55,11.30
2013,08,22,01,56,11.30
2013,08,22,01,57,11.20
2013,08,22,01,58,11.20
2013,08,22,01,59,11.20
2013,08,22,02,00,11.20
2013,08,22,02,01,11.20
2013,08,22,02,02,11.20
2013,08,22,02,03,11.20
2013,08,22,02,04,11.20
2013,08,22,02,05,11.20
2013,08,22,02,06,11.20
2013,08,22,02,07,11.20
2013,08,22,02,08,11.10
2013,08,22,02,09,11.10
2013,08,22,02,10,11.10
2013,08,22,02,11,11.10
2013,08,22,02,12,11.10
2013,08,22,02,13,11.10
2013,08,22,02,14,11.10
2013,08,22,02,15,11.00
2013,08,22,02,16,11.00
2013,08,22,02,17,11.00
2013,08,22,02,18,11.00
2013,08,22,02,19,11.00
2013,08,22,02,20,10.90
2013,08,22,02,21,10.90
2013,08,22,02,22,10.90
2013,08,22,02,23,10.90
2013,08,22,02,24,10.90
2013,08,22,02,25,10.80
2013,08,22,02,26,10.90
2013,08,22,02,27,10.80
2013,08,22,02,28,10.80
2013,08,22,02,29,10.80
2013,08,22,02,30,10.80
2013,08,22,02,31,10.80
2013,08,22,02,32,10.80
2013,08,22,02,33,10.80
2013,08,22,02,34,10.80
2013,08,22,02,35,10.80
2013,08,22,02,36,10.80
2013,08,22,02,37,10.80
2013,08,22,02,38,10.80
2013,08,22,02,39,10.80
2013,08,22,02,40,10.80
2013,08,22,02,41,10.80
2013,08,22,02,42,10.80
2013,08,22,02,43,10.80
2013,08,22,02,44,10.80
2013,08,22,02,45,10.80
2013,08,22,02,46,10.80
2013,08,22,02,47,10.80
2013,08,22,02,48,10.80
2013,08,22,02,49,10.80
2013,08,22,02,50,10.70
2013,08,22,02,51,10.70
2013,08,22,02,52,10.70
2013,08,22,02,53,10.70
2013,08,22,02,54,10.70
2013,08,22,02,55,10.70
2013,08,22,02,56,10.70
2013,08,22,02,57,10.80
2013,08,22,02,58,10.80
2013,08,22,02,59,10.80
2013,08,22,03,00,10.70
2013,08,22,03,01,10.70
2013,08,22,03,02,10.70
2013,08,22,03,03,10.70
2013,08,22,03,04,10.70
2013,08,22,03,05,10.70
2013,08,22,03,06,10.70
2013,08,22,03,07,10.70
2013,08,22,03,08,10.70
2013,08,22,03,09,10.70
2013,08,22,03,10,10.60
2013,08,22,03,11,10.60
2013,08,22,03,12,10.60
2013,08,22,03,13,10.60
2013,08,22,03,14,10.60
2013,08,22,03,15,10.60
2013,08,22,03,16,10.60
2013,08,22,03,17,10.60
2013,08,22,03,18,10.60
2013,08,22,03,19,10.60
2013,08,22,03,20,10.60
2013,08,22,03,21,10.60
2013,08,22,03,22,10.60
2013,08,22,03,23,10.50
2013,08,22,03,24,10.50
2013,08,22,03,25,10.50
2013,08,22,03,26,10.50
2013,08,22,03,27,10.50
2013,08,22,03,28,10.40
2013,08,22,03,29,10.40
2013,08,22,03,30,10.40
2013,08,22,03,31,10.40
2013,08,22,03,32,10.40
2013,08,22,03,33,10.40
2013,08,22,03,34,10.40
2013,08,22,03,35,10.40
2013,08,22,03,36,10.40
2013,08,22,03,37,10.40
2013,08,22,03,38,10.40
2013,08,22,03,39,10.40
2013,08,22,03,40,10.40
2013,08,22,03,41,10.40
2013,08,22,03,42,10.40
2013,08,22,03,43,10.40
2013,08,22,03,44,10.40
2013,08,22,03,45,10.40
2013,08,22,03,46,10.30
2013,08,22,03,47,10.30
2013,08,22,03,48,10.30
2013,08,22,03,49,10.30
2013,08,22,03,50,10.20
2013,08,22,03,51,10.20
2013,08,22,03,52,10.20
2013,08,22,03,53,10.10
2013,08,22,03,54,10.10
2013,08,22,03,55,10.10
2013,08,22,03,56,10.10
2013,08,22,03,57,10.00
2013,08,22,03,58,10.00
2013,08,22,03,59,10.00
2013,08,22,04,00,10.00
2013,08,22,04,01,9.90
2013,08,22,04,02,9.90
2013,08,22,04,03,9.90
2013,08,22,04,04,9.90
2013,08,22,04,05,9.90
2013,08,22,04,06,9.90
2013,08,22,04,07,9.90
2013,08,22,04,08,9.90
2013,08,22,04,09,9.90
2013,08,22,04,10,9.90
2013,08,22,04,11,9.90
2013,08,22,04,12,9.90
2013,08,22,04,13,9.80
2013,08,22,04,14,9.80
2013,08,22,04,15,9.80
2013,08,22,04,16,9.80
2013,08,22,04,17,9.80
2013,08,22,04,18,9.80
2013,08,22,04,19,9.80
2013,08,22,04,20,9.80
2013,08,22,04,21,9.70
2013,08,22,04,22,9.70
2013,08,22,04,23,9.70
2013,08,22,04,24,9.70
2013,08,22,04,25,9.70
2013,08,22,04,26,9.70
2013,08,22,04,27,9.70
2013,08,22,04,28,9.70
2013,08,22,04,29,9.70
2013,08,22,04,30,9.70
2013,08,22,04,31,9.70
2013,08,22,04,32,9.70
2013,08,22,04,33,9.70
2013,08,22,04,34,9.70
2013,08,22,04,35,9.70
2013,08,22,04,36,9.70
2013,08,22,04,37,9.70
2013,08,22,04,38,9.70
2013,08,22,04,39,9.60
2013,08,22,04,40,9.60
2013,08,22,04,41,9.60
2013,08,22,04,42,9.60
2013,08,22,04,43,9.60
2013,08,22,04,44,9.60
2013,08,22,04,45,9.50
2013,08,22,04,46,9.50
2013,08,22,04,47,9.50
2013,08,22,04,48,9.50
2013,08,22,04,49,9.40
2013,08,22,04,50,9.40
2013,08,22,04,51,9.40
2013,08,22,04,52,9.40
2013,08,22,04,53,9.40
2013,08,22,04,54,9.40
2013,08,22,04,55,9.40
2013,08,22,04,56,9.40
2013,08,22,04,57,9.40
2013,08,22,04,58,9.40
2013,08,22,04,59,9.50
2013,08,22,05,00,9.50
2013,08,22,05,01,9.50
2013,08,22,05,02,9.50
2013,08,22,05,03,9.50
2013,08,22,05,04,9.50
2013,08,22,05,05,9.50
2013,08,22,05,06,9.50
2013,08,22,05,07,9.40
2013,08,22,05,08,9.40
2013,08,22,05,09,9.40
2013,08,22,05,10,9.40
2013,08,22,05,11,9.40
2013,08,22,05,12,9.40
2013,08,22,05,13,9.40
2013,08,22,05,14,9.40
2013,08,22,05,15,9.40
2013,08,22,05,16,9.40
2013,08,22,05,17,9.30
2013,08,22,05,18,9.30
2013,08,22,05,19,9.30
2013,08,22,05,20,9.30
2013,08,22,05,21,9.30
2013,08,22,05,22,9.30
2013,08,22,05,23,9.30
2013,08,22,05,24,9.30
2013,08,22,05,25,9.30
2013,08,22,05,26,9.30
2013,08,22,05,27,9.30
2013,08,22,05,28,9.30
2013,08,22,05,29,9.30
2013,08,22,05,30,9.30
2013,08,22,05,31,9.20
2013,08,22,05,32,9.20
2013,08,22,05,33,9.20
2013,08,22,05,34,9.20
2013,08,22,05,35,9.20
2013,08,22,05,36,9.20
2013,08,22,05,37,9.20
2013,08,22,05,38,9.20
2013,08,22,05,39,9.20
2013,08,22,05,40,9.20
2013,08,22,05,41,9.20
2013,08,22,05,42,9.20
2013,08,22,05,43,9.20
2013,08,22,05,44,9.20
2013,08,22,05,45,9.20
2013,08,22,05,46,9.10
2013,08,22,05,47,9.10
2013,08,22,05,48,9.10
2013,08,22,05,49,9.10
2013,08,22,05,50,9.10
2013,08,22,05,51,9.10
2013,08,22,05,52,9.10
2013,08,22,05,53,9.10
2013,08,22,05,54,9.10
2013,08,22,05,55,9.10
2013,08,22,05,56,9.10
2013,08,22,05,57,9.10
2013,08,22,05,58,9.10
2013,08,22,05,59,9.10
2013,08,22,06,00,9.00
2013,08,22,06,01,9.00
2013,08,22,06,02,9.00
2013,08,22,06,03,9.00
2013,08,22,06,04,9.00
2013,08,22,06,05,9.00
2013,08,22,06,06,9.00
2013,08,22,06,07,8.90
2013,08,22,06,08,8.90
2013,08,22,06,09,8.90
2013,08,22,06,10,8.90
2013,08,22,06,11,8.90
2013,08,22,06,12,8.90
2013,08,22,06,13,8.90
2013,08,22,06,14,8.90
2013,08,22,06,15,8.80
2013,08,22,06,16,8.80
2013,08,22,06,17,8.80
2013,08,22,06,18,8.80
2013,08,22,06,19,8.80
2013,08,22,06,20,8.80
2013,08,22,06,21,8.80
2013,08,22,06,22,8.80
2013,08,22,06,23,8.80
2013,08,22,06,24,8.80
2013,08,22,06,25,8.80
2013,08,22,06,26,8.80
2013,08,22,06,27,8.80
2013,08,22,06,28,8.80
2013,08,22,06,29,8.80
2013,08,22,06,30,8.80
2013,08,22,06,31,8.80
2013,08,22,06,32,8.70
2013,08,22,06,33,8.70
2013,08,22,06,34,8.70
2013,08,22,06,35,8.70
2013,08,22,06,36,8.70
2013,08,22,06,37,8.70
2013,08,22,06,38,8.70
2013,08,22,06,39,8.70
2013,08,22,06,40,8.70
2013,08,22,06,41,8.70
2013,08,22,06,42,8.70
2013,08,22,06,43,8.70
2013,08,22,06,44,8.70
2013,08,22,06,45,8.70
2013,08,22,06,46,8.70
2013,08,22,06,47,8.70
2013,08,22,06,48,8.70
2013,08,22,06,49,8.70
2013,08,22,06,50,8.70
2013,08,22,06,51,8.70
2013,08,22,06,52,8.70
2013,08,22,06,53,8.70
2013,08,22,06,54,8.70
2013,08,22,06,55,8.70
2013,08,22,06,56,8.70
2013,08,22,06,57,8.70
2013,08,22,06,58,8.70
2013,08,22,06,59,8.70
2013,08,22,07,00,8.70
2013,08,22,07,01,8.70
2013,08,22,07,02,8.70
2013,08,22,07,03,8.70
2013,08,22,07,04,8.70
2013,08,22,07,05,8.80
2013,08,22,07,06,8.80
2013,08,22,07,07,8.80
2013,08,22,07,08,8.80
2013,08,22,07,09,8.80
2013,08,22,07,10,8.80
2013,08,22,07,11,8.80
2013,08,22,07,12,8.80
2013,08,22,07,13,8.80
2013,08,22,07,14,8.80
2013,08,22,07,15,8.90
2013,08,22,07,16,8.90
2013,08,22,07,17,8.90
2013,08,22,07,18,8.90
2013,08,22,07,19,8.90
2013,08,22,07,20,8.90
2013,08,22,07,21,8.90
2013,08,22,07,22,8.90
2013,08,22,07,23,8.90
2013,08,22,07,24,8.90
2013,08,22,07,25,8.90
2013,08,22,07,26,8.90
2013,08,22,07,27,8.90
2013,08,22,07,28,8.90
2013,08,22,07,29,8.90
2013,08,22,07,30,9.00
2013,08,22,07,31,9.00
2013,08,22,07,32,9.00
2013,08,22,07,33,9.00
2013,08,22,07,34,9.10
2013,08,22,07,35,9.10
2013,08,22,07,36,9.10
2013,08,22,07,37,9.10
2013,08,22,07,38,9.20
2013,08,22,07,39,9.20
2013,08,22,07,40,9.30
2013,08,22,07,41,9.40
2013,08,22,07,42,9.40
2013,08,22,07,43,9.50
2013,08,22,07,44,9.60
2013,08,22,07,45,9.60
2013,08,22,07,46,9.70
2013,08,22,07,47,9.70
2013,08,22,07,48,9.70
2013,08,22,07,49,9.70
2013,08,22,07,50,9.80
2013,08,22,07,51,9.80
2013,08,22,07,52,9.90
2013,08,22,07,53,9.90
2013,08,22,07,54,10.00
2013,08,22,07,55,10.00
2013,08,22,07,56,10.10
2013,08,22,07,57,10.20
2013,08,22,07,58,10.20
2013,08,22,07,59,10.30
2013,08,22,08,00,10.40
2013,08,22,08,01,10.40
2013,08,22,08,02,10.50
2013,08,22,08,03,10.60
2013,08,22,08,04,10.70
2013,08,22,08,05,10.80
2013,08,22,08,06,10.80
2013,08,22,08,07,10.90
2013,08,22,08,08,11.00
2013,08,22,08,09,11.10
2013,08,22,08,10,11.10
2013,08,22,08,11,11.20
2013,08,22,08,12,11.20
2013,08,22,08,13,11.30
2013,08,22,08,14,11.30
2013,08,22,08,15,11.40
2013,08,22,08,16,11.50
2013,08,22,08,17,11.60
2013,08,22,08,18,11.70
2013,08,22,08,19,11.80
2013,08,22,08,20,11.90
2013,08,22,08,21,11.90
2013,08,22,08,22,12.00
2013,08,22,08,23,12.10
2013,08,22,08,24,12.20
2013,08,22,08,25,12.30
2013,08,22,08,26,12.40
2013,08,22,08,27,12.50
2013,08,22,08,28,12.60
2013,08,22,08,29,12.70
2013,08,22,08,30,12.80
2013,08,22,08,31,12.90
2013,08,22,08,32,13.10
2013,08,22,08,33,13.10
2013,08,22,08,34,13.20
2013,08,22,08,35,13.30
2013,08,22,08,36,13.40
2013,08,22,08,37,13.50
2013,08,22,08,38,13.50
2013,08,22,08,39,13.60
2013,08,22,08,40,13.70
2013,08,22,08,41,13.80
2013,08,22,08,42,13.90
2013,08,22,08,43,14.00
2013,08,22,08,44,14.10
2013,08,22,08,45,14.20
2013,08,22,08,46,14.30
2013,08,22,08,47,14.40
2013,08,22,08,48,14.50
2013,08,22,08,49,14.60
2013,08,22,08,50,14.60
2013,08,22,08,51,14.70
2013,08,22,08,52,14.80
2013,08,22,08,53,15.00
2013,08,22,08,54,15.00
2013,08,22,08,55,15.00
2013,08,22,08,56,15.00
2013,08,22,08,57,15.10
2013,08,22,08,58,15.20
2013,08,22,08,59,15.30
2013,08,22,09,00,15.30
2013,08,22,09,01,15.40
2013,08,22,09,02,15.40
2013,08,22,09,03,15.50
2013,08,22,09,04,15.60
2013,08,22,09,05,15.60
2013,08,22,09,06,15.70
2013,08,22,09,07,15.80
2013,08,22,09,08,15.90
2013,08,22,09,09,16.00
2013,08,22,09,10,16.10
2013,08,22,09,11,16.20
2013,08,22,09,12,16.30
2013,08,22,09,13,16.30
2013,08,22,09,14,16.40
2013,08,22,09,15,16.50
2013,08,22,09,16,16.60
2013,08,22,09,17,16.80
2013,08,22,09,18,16.90
2013,08,22,09,19,17.00
2013,08,22,09,20,17.10
2013,08,22,09,21,17.20
2013,08,22,09,22,17.30
2013,08,22,09,23,17.40
2013,08,22,09,24,17.50
2013,08,22,09,25,17.50
2013,08,22,09,26,17.60
2013,08,22,09,27,17.70
2013,08,22,09,28,17.80
2013,08,22,09,29,17.90
2013,08,22,09,30,17.90
2013,08,22,09,31,18.00
2013,08,22,09,32,18.10
2013,08,22,09,33,18.20
2013,08,22,09,34,18.20
2013,08,22,09,35,18.30
2013,08,22,09,36,18.40
2013,08,22,09,37,18.50
2013,08,22,09,38,18.60
2013,08,22,09,39,18.70
2013,08,22,09,40,18.80
2013,08,22,09,41,18.90
2013,08,22,09,42,18.90
2013,08,22,09,43,19.00
2013,08,22,09,44,19.10
2013,08,22,09,45,19.20
2013,08,22,09,46,19.30
2013,08,22,09,47,19.30
2013,08,22,09,48,19.40
2013,08,22,09,49,19.40
2013,08,22,09,50,19.50
2013,08,22,09,51,19.60
2013,08,22,09,52,19.60
2013,08,22,09,53,19.70
2013,08,22,09,54,19.70
2013,08,22,09,55,19.80
2013,08,22,09,56,19.80
2013,08,22,09,57,19.90
2013,08,22,09,58,19.90
2013,08,22,09,59,20.00
2013,08,22,10,00,20.00
2013,08,22,10,01,20.10
2013,08,22,10,02,20.10
2013,08,22,10,03,20.20
2013,08,22,10,04,20.20
2013,08,22,10,05,20.30
2013,08,22,10,06,20.30
2013,08,22,10,07,20.40
2013,08,22,10,08,20.40
2013,08,22,10,09,20.40
2013,08,22,10,10,20.50
2013,08,22,10,11,20.60
2013,08,22,10,12,20.60
2013,08,22,10,13,20.70
2013,08,22,10,14,20.70
2013,08,22,10,15,20.70
2013,08,22,10,16,20.80
2013,08,22,10,17,20.80
2013,08,22,10,18,20.90
2013,08,22,10,19,21.00
2013,08,22,10,20,21.00
2013,08,22,10,21,21.10
2013,08,22,10,22,21.20
2013,08,22,10,23,21.30
2013,08,22,10,24,21.30
2013,08,22,10,25,21.40
2013,08,22,10,26,21.40
2013,08,22,10,27,21.40
2013,08,22,10,28,21.50
2013,08,22,10,29,21.50
2013,08,22,10,30,21.60
2013,08,22,10,31,21.60
2013,08,22,10,32,21.70
2013,08,22,10,33,21.70
2013,08,22,10,34,21.70
2013,08,22,10,35,21.80
2013,08,22,10,36,21.80
2013,08,22,10,37,21.80
2013,08,22,10,38,21.80
2013,08,22,10,39,21.90
2013,08,22,10,40,21.90
2013,08,22,10,41,22.00
2013,08,22,10,42,22.00
2013,08,22,10,43,22.10
2013,08,22,10,44,22.20
2013,08,22,10,45,22.30
2013,08,22,10,46,22.30
2013,08,22,10,47,22.30
2013,08,22,10,48,22.40
2013,08,22,10,49,22.40
2013,08,22,10,50,22.50
2013,08,22,10,51,22.60
2013,08,22,10,52,22.70
2013,08,22,10,53,22.80
2013,08,22,10,54,22.90
2013,08,22,10,55,22.90
2013,08,22,10,56,23.00
2013,08,22,10,57,23.10
2013,08,22,10,58,23.20
2013,08,22,10,59,23.30
2013,08,22,11,00,23.40
2013,08,22,11,01,23.50
2013,08,22,11,02,23.60
2013,08,22,11,03,23.70
2013,08,22,11,04,23.70
2013,08,22,11,05,23.70
2013,08,22,11,06,23.70
2013,08,22,11,07,23.70
2013,08,22,11,08,23.80
2013,08,22,11,09,23.80
2013,08,22,11,10,23.90
2013,08,22,11,11,23.90
2013,08,22,11,12,23.90
2013,08,22,11,13,24.00
2013,08,22,11,14,24.00
2013,08,22,11,15,24.10
2013,08,22,11,16,24.20
2013,08,22,11,17,24.30
2013,08,22,11,18,24.40
2013,08,22,11,19,24.50
2013,08,22,11,20,24.60
2013,08,22,11,21,24.70
2013,08,22,11,22,24.80
2013,08,22,11,23,24.80
2013,08,22,11,24,24.80
2013,08,22,11,25,24.80
2013,08,22,11,26,24.80
2013,08,22,11,27,24.80
2013,08,22,11,28,24.80
2013,08,22,11,29,24.80
2013,08,22,11,30,24.80
2013,08,22,11,31,24.80
2013,08,22,11,32,24.80
2013,08,22,11,33,24.80
2013,08,22,11,34,24.70
2013,08,22,11,35,24.70
2013,08,22,11,36,24.70
2013,08,22,11,37,24.80
2013,08,22,11,38,24.80
2013,08,22,11,39,24.90
2013,08,22,11,40,25.00
2013,08,22,11,41,25.10
2013,08,22,11,42,25.20
2013,08,22,11,43,25.30
2013,08,22,11,44,25.30
2013,08,22,11,45,25.30
2013,08,22,11,46,25.30
2013,08,22,11,47,25.30
2013,08,22,11,48,25.30
2013,08,22,11,49,25.30
2013,08,22,11,50,25.30
2013,08,22,11,51,25.20
2013,08,22,11,52,25.20
2013,08,22,11,53,25.20
2013,08,22,11,54,25.20
2013,08,22,11,55,25.30
2013,08,22,11,56,25.30
2013,08,22,11,57,25.40
2013,08,22,11,58,25.50
2013,08,22,11,59,25.60
2013,08,22,12,00,25.60
2013,08,22,12,01,25.50
2013,08,22,12,02,25.50
2013,08,22,12,03,25.50
2013,08,22,12,04,25.50
2013,08,22,12,05,25.50
2013,08,22,12,06,25.50
2013,08,22,12,07,25.50
2013,08,22,12,08,25.60
2013,08,22,12,09,25.60
2013,08,22,12,10,25.60
2013,08,22,12,11,25.60
2013,08,22,12,12,25.70
2013,08,22,12,13,25.70
2013,08,22,12,14,25.80
2013,08,22,12,15,25.90
2013,08,22,12,16,25.90
2013,08,22,12,17,25.90
2013,08,22,12,18,25.90
2013,08,22,12,19,25.90
2013,08,22,12,20,25.90
2013,08,22,12,21,25.90
2013,08,22,12,22,25.90
2013,08,22,12,23,25.90
2013,08,22,12,24,25.90
2013,08,22,12,25,26.00
2013,08,22,12,26,26.10
2013,08,22,12,27,26.10
2013,08,22,12,28,26.20
2013,08,22,12,29,26.30
2013,08,22,12,30,26.30
2013,08,22,12,31,26.40
2013,08,22,12,32,26.40
2013,08,22,12,33,26.40
2013,08,22,12,34,26.30
2013,08,22,12,35,26.30
2013,08,22,12,36,26.30
2013,08,22,12,37,26.30
2013,08,22,12,38,26.30
2013,08,22,12,39,26.30
2013,08,22,12,40,26.30
2013,08,22,12,41,26.40
2013,08,22,12,42,26.40
2013,08,22,12,43,26.50
2013,08,22,12,44,26.50
2013,08,22,12,45,26.60
2013,08,22,12,46,26.60
2013,08,22,12,47,26.70
2013,08,22,12,48,26.80
2013,08,22,12,49,26.90
2013,08,22,12,50,27.00
2013,08,22,12,51,27.00
2013,08,22,12,52,27.10
2013,08,22,12,53,27.20
2013,08,22,12,54,27.20
2013,08,22,12,55,27.20
2013,08,22,12,56,27.20
2013,08,22,12,57,27.20
2013,08,22,12,58,27.30
2013,08,22,12,59,27.30
2013,08,22,13,00,27.40
2013,08,22,13,01,27.40
2013,08,22,13,02,27.40
2013,08,22,13,03,27.40
2013,08,22,13,04,27.50
2013,08,22,13,05,27.50
2013,08,22,13,06,27.60
2013,08,22,13,07,27.60
2013,08,22,13,08,27.60
2013,08,22,13,09,27.60
2013,08,22,13,10,27.60
2013,08,22,13,11,27.60
2013,08,22,13,12,27.70
2013,08,22,13,13,27.70
2013,08,22,13,14,27.70
2013,08,22,13,15,27.60
2013,08,22,13,16,27.60
2013,08,22,13,17,27.60
2013,08,22,13,18,27.60
2013,08,22,13,19,27.60
2013,08,22,13,20,27.60
2013,08,22,13,21,27.70
2013,08,22,13,22,27.70
2013,08,22,13,23,27.80
2013,08,22,13,24,27.90
2013,08,22,13,25,27.90
2013,08,22,13,26,28.00
2013,08,22,13,27,28.10
2013,08,22,13,28,28.10
2013,08,22,13,29,28.20
2013,08,22,13,30,28.20
2013,08,22,13,31,28.20
2013,08,22,13,32,28.20
2013,08,22,13,33,28.20
2013,08,22,13,34,28.20
2013,08,22,13,35,28.20
2013,08,22,13,36,28.20
2013,08,22,13,37,28.20
2013,08,22,13,38,28.20
2013,08,22,13,39,28.30
2013,08,22,13,40,28.40
2013,08,22,13,41,28.40
2013,08,22,13,42,28.50
2013,08,22,13,43,28.60
2013,08,22,13,44,28.60
2013,08,22,13,45,28.70
2013,08,22,13,46,28.80
2013,08,22,13,47,28.90
2013,08,22,13,48,29.00
2013,08,22,13,49,29.10
2013,08,22,13,50,29.20
2013,08,22,13,51,29.20
2013,08,22,13,52,29.30
2013,08,22,13,53,29.30
2013,08,22,13,54,29.30
2013,08,22,13,55,29.30
2013,08,22,13,56,29.30
2013,08,22,13,57,29.20
2013,08,22,13,58,29.20
2013,08,22,13,59,29.20
2013,08,22,14,00,29.20
2013,08,22,14,01,29.30
2013,08,22,14,02,29.40
2013,08,22,14,03,29.40
2013,08,22,14,04,29.50
2013,08,22,14,05,29.60
2013,08,22,14,06,29.70
2013,08,22,14,07,29.80
2013,08,22,14,08,30.00
2013,08,22,14,09,30.10
2013,08,22,14,10,30.20
2013,08,22,14,11,30.30
2013,08,22,14,12,30.40
2013,08,22,14,13,30.40
2013,08,22,14,14,30.30
2013,08,22,14,15,30.30
2013,08,22,14,16,30.40
2013,08,22,14,17,30.40
2013,08,22,14,18,30.40
2013,08,22,14,19,30.40
2013,08,22,14,20,30.20
2013,08,22,14,21,30.00
2013,08,22,14,22,29.90
2013,08,22,14,23,29.90
2013,08,22,14,24,29.90
2013,08,22,14,25,29.90
2013,08,22,14,26,29.90
2013,08,22,14,27,29.90
2013,08,22,14,28,29.90
2013,08,22,14,29,29.90
2013,08,22,14,30,29.90
2013,08,22,14,31,30.00
2013,08,22,14,32,30.10
2013,08,22,14,33,30.20
2013,08,22,14,34,30.30
2013,08,22,14,35,30.30
2013,08,22,14,36,30.40
2013,08,22,14,37,30.50
2013,08,22,14,38,30.60
2013,08,22,14,39,30.60
2013,08,22,14,40,30.60
2013,08,22,14,41,30.60
2013,08,22,14,42,30.50
2013,08,22,14,43,30.50
2013,08,22,14,44,30.40
2013,08,22,14,45,30.30
2013,08,22,14,46,30.30
2013,08,22,14,47,30.10
2013,08,22,14,48,30.00
2013,08,22,14,49,30.00
2013,08,22,14,50,30.00
2013,08,22,14,51,30.10
2013,08,22,14,52,30.10
2013,08,22,14,53,30.20
2013,08,22,14,54,30.40
2013,08,22,14,55,30.50
2013,08,22,14,56,30.60
2013,08,22,14,57,30.70
2013,08,22,14,58,30.80
2013,08,22,14,59,30.80
2013,08,22,15,00,30.80
2013,08,22,15,01,30.80
2013,08,22,15,02,30.80
2013,08,22,15,03,30.80
2013,08,22,15,04,30.80
2013,08,22,15,05,30.80
2013,08,22,15,06,30.70
2013,08,22,15,07,30.60
2013,08,22,15,08,30.50
2013,08,22,15,09,30.40
2013,08,22,15,10,30.30
2013,08,22,15,11,30.30
2013,08,22,15,12,30.30
2013,08,22,15,13,30.40
2013,08,22,15,14,30.60
2013,08,22,15,15,30.60
2013,08,22,15,16,30.70
2013,08,22,15,17,30.70
2013,08,22,15,18,30.70
2013,08,22,15,19,30.70
2013,08,22,15,20,30.60
2013,08,22,15,21,30.60
2013,08,22,15,22,30.60
2013,08,22,15,23,30.50
2013,08,22,15,24,30.50
2013,08,22,15,25,30.40
2013,08,22,15,26,30.40
2013,08,22,15,27,30.40
2013,08,22,15,28,30.40
2013,08,22,15,29,30.40
2013,08,22,15,30,30.40
2013,08,22,15,31,30.40
2013,08,22,15,32,30.50
2013,08,22,15,33,30.50
2013,08,22,15,34,30.50
2013,08,22,15,35,30.50
2013,08,22,15,36,30.50
2013,08,22,15,37,30.50
2013,08,22,15,38,30.50
2013,08,22,15,39,30.50
2013,08,22,15,40,30.50
2013,08,22,15,41,30.50
2013,08,22,15,42,30.50
2013,08,22,15,43,30.50
2013,08,22,15,44,30.50
2013,08,22,15,45,30.50
2013,08,22,15,46,30.50
2013,08,22,15,47,30.60
2013,08,22,15,48,30.60
2013,08,22,15,49,30.60
2013,08,22,15,50,30.60
2013,08,22,15,51,30.70
2013,08,22,15,52,30.60
2013,08,22,15,53,30.60
2013,08,22,15,54,30.60
2013,08,22,15,55,30.60
2013,08,22,15,56,30.60
2013,08,22,15,57,30.50
2013,08,22,15,58,30.50
2013,08,22,15,59,30.50
2013,08,22,16,00,30.50
2013,08,22,16,01,30.50
2013,08,22,16,02,30.40
2013,08,22,16,03,30.30
2013,08,22,16,04,30.30
2013,08,22,16,05,30.30
2013,08,22,16,06,30.20
2013,08,22,16,07,30.20
2013,08,22,16,08,30.20
2013,08,22,16,09,30.20
2013,08,22,16,10,30.20
2013,08,22,16,11,30.20
2013,08,22,16,12,30.20
2013,08,22,16,13,30.10
2013,08,22,16,14,30.10
2013,08,22,16,15,30.20
2013,08,22,16,16,30.20
2013,08,22,16,17,30.30
2013,08,22,16,18,30.30
2013,08,22,16,19,30.40
2013,08,22,16,20,30.40
2013,08,22,16,21,30.40
2013,08,22,16,22,30.30
2013,08,22,16,23,30.30
2013,08,22,16,24,30.30
2013,08,22,16,25,30.30
2013,08,22,16,26,30.30
2013,08,22,16,27,30.30
2013,08,22,16,28,30.30
2013,08,22,16,29,30.30
2013,08,22,16,30,30.30
2013,08,22,16,31,30.30
2013,08,22,16,32,30.20
2013,08,22,16,33,30.20
2013,08,22,16,34,30.20
2013,08,22,16,35,30.20
2013,08,22,16,36,30.20
2013,08,22,16,37,30.20
2013,08,22,16,38,30.20
2013,08,22,16,39,30.20
2013,08,22,16,40,30.20
2013,08,22,16,41,30.20
2013,08,22,16,42,30.20
2013,08,22,16,43,30.30
2013,08,22,16,44,30.20
2013,08,22,16,45,30.20
2013,08,22,16,46,30.10
2013,08,22,16,47,30.00
2013,08,22,16,48,29.90
2013,08,22,16,49,29.90
2013,08,22,16,50,29.90
2013,08,22,16,51,30.00
2013,08,22,16,52,30.10
2013,08,22,16,53,30.10
2013,08,22,16,54,30.10
2013,08,22,16,55,30.20
2013,08,22,16,56,30.20
2013,08,22,16,57,30.30
2013,08,22,16,58,30.30
2013,08,22,16,59,30.20
2013,08,22,17,00,30.20
2013,08,22,17,01,30.20
2013,08,22,17,02,30.10
2013,08,22,17,03,30.10
2013,08,22,17,04,30.00
2013,08,22,17,05,30.00
2013,08,22,17,06,30.00
2013,08,22,17,07,30.00
2013,08,22,17,08,30.00
2013,08,22,17,09,30.00
2013,08,22,17,10,30.00
2013,08,22,17,11,30.00
2013,08,22,17,12,30.00
2013,08,22,17,13,30.00
2013,08,22,17,14,30.00
2013,08,22,17,15,29.90
2013,08,22,17,16,29.90
2013,08,22,17,17,29.90
2013,08,22,17,18,29.80
2013,08,22,17,19,29.80
2013,08,22,17,20,29.70
2013,08,22,17,21,29.70
2013,08,22,17,22,29.60
2013,08,22,17,23,29.60
2013,08,22,17,24,29.50
2013,08,22,17,25,29.40
2013,08,22,17,26,29.40
2013,08,22,17,27,29.50
2013,08,22,17,28,29.60
2013,08,22,17,29,29.60